CAPE
0 0 0 0 0 0 0 0 0 0 1 2 2 2 0 0 0 0 0 0 0 0 0 0 0 0 0 0 0 0 0 0 0 0 0 0 0 0 0 0 0 0 0 0 0 0 0 0 0 0 0 0 0 0
0 0 0 0 0 0 0 0 0 0 0 1 1 1 1 0 0 0 0 0 0 0 0 0 0 0 0 0 0 0 0 0 0 0 0 0 0 0 0 0 0 0 0 0 0 0 0 0 0 0 0 0 0 0
0 0 0 0 0 0 0 0 0 0 0 0 1 1 1 0 0 0 0 0 0 0 0 0 0 0 0 0 0 0 0 0 0 0 0 0 0 0 0 0 0 0 0 0 0 0 0 0 0 0 0 0 0 0
0 0 0 0 0 0 0 0 0 0 0 1 2 0 0 0 0 2 0 0 0 0 0 0 0 0 0 0 0 0 0 0 0 0 0 0 0 0 0 0 0 0 0 0 0 0 0 0 0 0 0 0 0 0
0 0 0 0 0 0 0 0 0 0 0 1 1 0 0 0 0 0 0 0 0 0 0 0 0 0 0 0 0 0 0 0 0 0 0 0 0 0 0 0 0 0 0 0 0 0 0 0 0 0 0 0 0 0
0 0 0 0 0 0 0 0 0 0 0 1 0 0 0 0 0 0 0 0 0 0 0 0 0 0 0 0 0 0 0 0 0 0 0 0 0 0 0 0 0 0 0 0 0 0 0 0 0 0 0 0 0 0
0 0 0 0 0 0 0 0 0 0 1 0 0 0 0 0 0 0 0 0 0 0 0 0 0 0 0 0 0 0 0 0 0 0 0 0 0 0 0 0 0 0 0 0 0 0 0 0 0 0 0 0 0 0
0 0 0 0 0 0 0 0 0 0 0 0 0 0 0 0 0 0 0 0 0 0 0 0 0 0 0 0 0 0 0 0 0 0 0 0 0 0 0 0 0 0 0 0 0 0 0 0 0 0 0 0 0 0
0 0 0 0 0 0 0 0 0 0 0 0 0 0 0 0 0 0 0 0 0 0 0 0 0 0 0 0 0 0 0 0 0 0 0 0 0 0 0 0 0 0 0 0 0 0 0 0 0 0 0 0 0 0
0 0 0 0 0 0 0 0 0 0 0 0 0 0 0 0 0 0 0 0 0 0 0 0 0 0 0 0 0 0 0 0 0 0 0 0 0 0 0 0 0 0 0 0 0 0 0 0 0 0 0 1 1 2
1 0 0 0 0 0 0 0 0 0 0 0 0 0 0 0 0 0 0 0 0 0 0 0 0 0 0 0 0 0 0 0 0 0 0 0 0 0 0 0 0 0 0 0 0 0 0 0 0 0 0 0 0 1
2 0 0 0 0 0 0 0 0 0 0 0 1 1 0 0 0 0 0 0 0 0 0 0 0 0 0 0 0 0 0 0 0 0 0 0 0 0 0 0 0 0 0 0 0 0 0 0 0 0 0 0 0 0
0 0 0 0 0 0 0 0 0 0 0 0 1 0 0 0 0 0 0 0 0 0 0 0 0 0 0 0 0 0 0 0 0 0 0 0 0 0 0 0 0 0 0 0 0 0 0 0 0 0 0 0 0 0
0 0 0 0 0 0 0 0 0 0 1 0 0 0 0 0 0 0 0 0 0 0 0 0 0 0 0 0 0 0 0 0 0 0 0 0 0 0 0 0 0 0 0 0 0 0 0 0 0 0 0 0 0 0
0 0 0 0 2 0 0 0 0 0 0 0 0 0 0 0 0 0 0 0 0 0 0 0 0 0 0 0 0 0 0 0 0 0 0 0 0 0 0 0 0 0 0 0 0 0 0 0 0 0 0 0 0 0
2 0 1 1 1 0 0 0 0 0 0 0 0 0 0 0 0 0 0 0 0 0 0 0 0 0 3 0 0 0 0 0 0 0 0 0 0 0 0 0 0 0 0 0 0 0 0 0 0 0 0 0 0 0
4 0 0 0 0 0 8 8 5 2 0 0 0 0 0 0 0 0 0 0 0 0 0 0 0 0 0 0 0 0 0 0 0 0 0 0 2 0 0 0 0 0 0 0 0 0 0 0 0 0 0 0 0 0
2 3 1 0 0 16 27 11 2 0 0 0 0 0 0 0 0 0 0 0 0 0 0 0 0 0 0 0 0 0 0 0 0 0 0 9 0 0 0 0 0 0 0 0 0 0 0 0 0 0 0 0 0 0
2 3 0 0 0 1 8 7 1 0 0 0 0 0 0 0 0 0 0 0 0 0 0 0 0 0 0 0 0 0 0 0 0 0 7 3 0 2 8 2 0 0 0 0 0 0 0 0 0 0 0 0 0 0
6 4 0 0 0 4 18 3 0 0 0 0 0 0 0 0 0 0 0 0 0 0 0 0 0 0 0 0 0 0 0 0 5 12 10 4 0 10 12 0 3 0 0 0 0 0 0 0 0 0 0 0 0 0
2 0 0 0 0 0 0 0 4 0 0 0 0 0 0 0 0 0 0 0 0 0 0 0 0 0 0 0 0 0 0 0 12 18 21 24 9 10 8 6 0 0 0 0 0 0 0 0 0 0 0 0 0 0
1 18 1 0 2 9 1 0 0 0 0 0 0 0 0 0 0 0 0 0 0 0 0 0 0 0 0 0 0 1 0 0 1 10 15 15 12 1 4 17 9 14 0 0 0 0 0 0 0 0 0 0 0 0
0 0 3 2 5 2 0 0 0 0 0 0 0 0 0 0 0 0 0 0 0 0 0 0 0 0 0 0 0 0 0 0 0 0 2 29 19 5 5 13 19 22 8 0 0 0 1 0 0 0 0 0 0 0
0 2 15 0 0 0 0 3 2 0 1 0 0 0 0 0 0 0 0 0 0 0 0 0 0 0 0 0 0 0 0 0 0 0 0 15 41 22 4 3 0 13 3 0 0 0 0 0 0 0 0 0 0 0
0 1 1 3 0 5 0 0 0 2 0 0 0 0 0 0 0 0 0 0 0 0 0 0 0 0 0 0 0 0 0 2 15 30 7 9 24 0 0 0 0 0 0 0 0 0 0 0 0 0 0 0 0 0
0 0 0 2 0 0 1 1 0 0 0 0 0 0 0 0 0 0 0 0 1 1 0 0 0 0 0 0 0 0 0 0 10 19 20 1 0 4 2 0 0 0 0 0 0 0 0 0 0 0 0 0 0 0
0 0 0 0 3 6 0 0 0 0 0 0 0 0 0 0 0 0 0 3 0 6 12 0 0 4 0 0 8 0 0 3 15 19 24 2 0 0 0 0 0 0 0 0 0 0 0 5 6 1 0 3 0 0
0 1 0 3 0 0 0 0 0 0 1 0 0 0 6 2 0 0 0 0 0 0 0 0 0 22 25 34 30 29 23 8 5 3 0 0 0 0 0 0 0 0 0 0 0 0 0 0 5 2 0 0 0 0
0 0 0 0 6 12 0 0 0 0 0 7 8 1 1 0 6 0 0 0 0 0 0 0 2 18 34 20 9 7 4 4 31 26 19 2 0 0 0 0 0 0 0 0 0 0 0 0 0 0 1 3 0 0
0 0 0 11 23 1 0 0 0 1 5 4 2 1 1 0 0 0 0 0 0 0 0 0 0 1 17 11 22 8 0 1 0 25 12 3 0 0 0 0 0 0 0 0 0 0 0 0 0 0 5 15 14 4
0 0 0 1 1 0 0 0 0 1 0 0 0 0 0 0 0 0 0 0 0 0 0 0 0 3 5 9 11 6 25 3 0 0 0 0 0 0 0 0 0 0 0 0 0 0 0 0 0 0 5 11 16 12
0 0 0 0 0 0 0 0 0 0 0 0 0 0 0 1 0 0 0 0 0 0 0 0 0 0 0 2 0 0 0 0 0 0 0 0 3 0 0 0 0 1 26 19 7 2 10 12 14 5 3 9 10 15
0 0 0 0 0 0 0 0 0 0 0 0 1 0 3 0 0 0 0 0 0 0 0 0 0 0 1 3 0 5 5 4 0 0 0 0 0 0 0 2 2 6 6 5 0 5 28 47 30 0 0 0 0 0
CIN
-0 -0 -0 -0 -0 -0 -0 -0 -0 -0 -0 -0 -0 -0 -0 -0 -0 -0 -0 -0 -0 -0 -0 -0 -0 -0 -0 -0 -0 -0 -0 -0 -0 -0 -0 -0 -0 -0 -0 -0 -0 -0 -0 -0 -0 -0 -0 -0 -0 -0 -0 -0 -0 -0
-0 -0 -0 -0 -0 -0 -0 -0 -0 -0 -0 -0 -0 -0 -0 -0 -0 -0 -0 -0 -0 -0 -0 -0 -0 -0 -0 -0 -0 -0 -0 -0 -0 -0 -0 -0 -0 -0 -0 -0 -0 -0 -0 -0 -0 -0 -0 -0 -0 -0 -0 -0 -0 -0
-0 -0 -0 -0 -0 -0 -0 -0 -0 -0 -0 -0 -0 -0 -0 -0 -0 -0 -0 -0 -0 -0 -0 -0 -0 -0 -0 -0 -0 -0 -0 -0 -0 -0 -0 -0 -0 -0 -0 -0 -0 -0 -0 -0 -0 -0 -0 -0 -0 -0 -0 -0 -0 -0
-0 -0 -0 -0 -0 -0 -0 -0 -0 -0 -0 -0 -0 -0 -0 -0 -0 -0 -0 -0 -0 -0 -0 -0 -0 -0 -0 -0 -0 -0 -0 -0 -0 -0 -0 -0 -0 -0 -0 -0 -0 -0 -0 -0 -0 -0 -0 -0 -0 -0 -0 -0 -0 -0
-0 -0 -0 -0 -0 -0 -0 -0 -0 -0 -0 -0 -0 -0 -0 -0 -0 -0 -0 -0 -0 -0 -0 -0 -0 -0 -0 -0 -0 -0 -0 -0 -0 -0 -0 -0 -0 -0 -0 -0 -0 -0 -0 -0 -0 -0 -0 -0 -0 -0 -0 -0 -0 -0
-0 -0 -0 -0 -0 -0 -0 -0 -0 -0 -0 -0 -0 -0 -0 -0 -0 -0 -0 -0 -0 -0 -0 -0 -0 -0 -0 -0 -0 -0 -0 -0 -0 -0 -0 -0 -0 -0 -0 -0 -0 -0 -0 -0 -0 -0 -0 -0 -0 -0 -0 -0 -0 -0
-0 -0 -0 -0 -0 -0 -0 -0 -0 -0 -0 -0 -0 -0 -0 -0 -0 -0 -0 -0 -0 -0 -0 -0 -0 -0 -0 -0 -0 -0 -0 -0 -0 -0 -0 -0 -0 -0 -0 -0 -0 -0 -0 -0 -0 -0 -0 -0 -0 -0 -0 -0 -0 -0
-0 -0 -0 -0 -0 -0 -0 -0 -0 -0 -0 -0 -0 -0 -0 -0 -0 -0 -0 -0 -0 -0 -0 -0 -0 -0 -0 -0 -0 -0 -0 -0 -0 -0 -0 -0 -0 -0 -0 -0 -0 -0 -0 -0 -0 -0 -0 -0 -0 -0 -0 -0 -0 -0
-0 -0 -0 -0 -0 -0 -0 -0 -0 -0 -0 -0 -0 -0 -0 -0 -0 -0 -0 -0 -0 -0 -0 -0 -0 -0 -0 -0 -0 -0 -0 -0 -0 -0 -0 -0 -0 -0 -0 -0 -0 -0 -0 -0 -0 -0 -0 -0 -0 -0 -0 -0 -0 -0
-0 -0 -0 -0 -0 -0 -0 -0 -0 -0 -0 -0 -0 -0 -0 -0 -0 -0 -0 -0 -0 -0 -0 -0 -0 -0 -0 -0 -0 -0 -0 -0 -0 -0 -0 -0 -0 -0 -0 -0 -0 -0 -0 -0 -0 -0 -0 -0 -0 -0 -0 -0 -0 -0
-0 -0 -0 -0 -0 -0 -0 -0 -0 -0 -0 -0 -0 -0 -0 -0 -0 -0 -0 -0 -0 -0 -0 -0 -0 -0 -0 -0 -0 -0 -0 -0 -0 -0 -0 -0 -0 -0 -0 -0 -0 -0 -0 -0 -0 -0 -0 -0 -0 -0 -0 -0 -0 -0
-0 -0 -0 -0 -0 -0 -0 -0 -0 -0 -0 -0 -0 -0 -0 -0 -0 -0 -0 -0 -0 -0 -0 -0 -0 -0 -0 -0 -0 -0 -0 -0 -0 -0 -0 -0 -0 -0 -0 -0 -0 -0 -0 -0 -0 -0 -0 -0 -0 -0 -0 -0 -0 -0
-0 -0 -0 -0 -0 -0 -0 -0 -0 -0 -0 -0 -0 -0 -0 -0 -0 -0 -0 -0 -0 -0 -0 -0 -0 -0 -0 -0 -0 -0 -0 -0 -0 -0 -0 -0 -0 -0 -0 -0 -0 -0 -0 -0 -0 -0 -0 -0 -0 -0 -0 -0 -0 -0
-0 -0 -0 -0 -0 -0 -0 -0 -0 -0 -0 -0 -0 -0 -0 -0 -0 -0 -0 -0 -0 -0 -0 -0 -0 -0 -0 -0 -0 -0 -0 -0 -0 -0 -0 -0 -0 -0 -0 -0 -0 -0 -0 -0 -0 -0 -0 -0 -0 -0 -0 -0 -0 -0
-2 -1 -0 -0 -1 -0 -0 -0 -0 -0 -1 -0 -0 -0 -0 -0 -0 -0 -0 -0 -0 -0 -0 -0 -0 -0 -0 -0 -0 -0 -0 -0 -0 -0 -0 -0 -0 -0 -0 -0 -0 -0 -0 -0 -0 -0 -0 -0 -0 -0 -0 -0 -0 -0
-1 -0 -0 -0 -0 -0 -0 -0 -0 -4 -0 -0 -0 -0 -0 -0 -0 -0 -0 -0 -0 -0 -0 -0 -0 -0 -6 -0 -0 -0 -0 -0 -0 -0 -0 -0 -0 -0 -0 -0 -0 -0 -0 -0 -0 -0 -0 -0 -0 -0 -0 -0 -0 -0
-1 -0 -0 -0 -0 -0 -7 -2 -5 -0 -0 -0 -0 -0 -0 -0 -0 -0 -0 -0 -0 -0 -0 -0 -0 -6 -0 -0 -0 -0 -0 -0 -0 -0 -0 -0 -88 -0 -0 -0 -0 -0 -0 -0 -0 -0 -0 -0 -0 -0 -0 -0 -0 -0
-1 -1 -1 -0 -0 -4 -1 -3 -3 -1 -0 -0 -0 -0 -0 -0 -0 -0 -0 -0 -0 -0 -0 -4 -0 -0 -0 -0 -0 -0 -0 -0 -0 -0 -7 -108 -0 -0 -0 -0 -0 -0 -0 -0 -0 -0 -0 -0 -0 -0 -0 -0 -0 -0
-2 -2 -0 -0 -0 -0 -0 -2 -5 -0 -0 -0 -0 -0 -0 -0 -0 -0 -0 -0 -0 -0 -0 -0 -0 -0 -0 -0 -0 -0 -0 -0 -0 -0 -120 -153 -0 -77 -134 -89 -0 -0 -0 -0 -0 -0 -0 -0 -0 -0 -0 -0 -0 -0
-2 -4 -0 -0 -0 -11 -0 -1 -0 -0 -0 -0 -0 -0 -0 -0 -0 -0 -0 -0 -0 -0 -0 -0 -0 -0 -0 -0 -0 -0 -0 -0 -94 -70 -82 -116 -0 -136 -115 -0 -92 -0 -0 -0 -0 -0 -0 -0 -0 -0 -0 -0 -0 -0
-7 -8 -0 -0 -0 -0 -2 -6 -1 -0 -0 -0 -0 -0 -0 -0 -0 -0 -0 -0 -0 -0 -0 -0 -0 -0 -0 -0 -0 -0 -0 -0 -61 -38 -31 -42 -119 -117 -123 -114 -0 -0 -0 -0 -0 -0 -0 -0 -0 -0 -0 -0 -0 -0
-1 -1 -2 -0 -3 -1 -0 -0 -0 -0 -0 -0 -0 -0 -0 -0 -0 -0 -0 -0 -0 -0 -0 -0 -0 -0 -0 -0 -0 -74 -0 -48 -71 -81 -99 -108 -86 -22 -124 -112 -93 -64 -7 -0 -0 -0 -0 -0 -0 -0 -0 -0 -0 -0
-0 -0 -0 -2 -4 -6 -0 -0 -0 -0 -0 -0 -0 -0 -0 -0 -0 -0 -0 -0 -0 -0 -0 -0 -0 -0 -0 -0 -0 -0 -0 -0 -0 -0 -40 -62 -72 -112 -129 -118 -89 -53 -47 -0 -0 -0 -36 -6 -36 -0 -0 -0 -0 -0
-0 -18 -0 -0 -0 -0 -3 -4 -13 -0 -6 -0 -0 -0 -0 -0 -0 -0 -0 -0 -0 -0 -0 -0 -0 -0 -0 -0 -0 -0 -0 -0 -0 -0 -0 -98 -63 -92 -133 -112 -0 -73 -22 -0 -0 -0 -0 -0 -0 -0 -0 -0 -0 -0
-0 -0 -0 -1 -1 -0 -4 -0 -0 -4 -0 -1 -1 -0 -0 -0 -0 -0 -0 -0 -0 -0 -0 -0 -0 -0 -0 -0 -0 -0 -0 -78 -48 -35 -67 -91 -97 -0 -0 -0 -0 -0 -0 -0 -0 -0 -0 -0 -0 -0 -0 -0 -0 -0
-0 -0 -0 -0 -0 -0 -14 -2 -2 -0 -0 -0 -0 -0 -0 -0 -0 -0 -0 -0 -23 -26 -0 -0 -0 -0 -0 -0 -0 -0 -0 -0 -86 -45 -79 -98 -0 -35 -32 -0 -0 -0 -0 -0 -0 -0 -0 -0 -0 -0 -0 -0 -0 -0
-0 -2 -0 -0 -4 -6 -1 -0 -0 -0 -0 -0 -0 -0 -0 -0 -0 -0 -4 -49 -0 -88 -94 -0 -0 -68 -0 -0 -56 -0 -0 -84 -96 -55 -62 -62 -0 -0 -0 -0 -0 -0 -0 -0 -0 -23 -0 -17 -44 -35 -0 -85 -0 -12
-0 -8 -0 -6 -0 -0 -0 -0 -0 -0 -6 -0 -0 -0 -3 -4 -0 -0 -0 -0 -0 -0 -0 -0 -0 -123 -121 -125 -142 -152 -179 -221 -221 -200 -0 -0 -0 -0 -0 -0 -0 -0 -0 -0 -0 -0 -0 -0 -38 -41 -0 -0 -0 -0
-0 -0 -0 -0 -0 -0 -2 -0 -0 -0 -0 -23 -8 -12 -2 -0 -28 -5 -0 -0 -0 -0 -0 -0 -47 -111 -102 -133 -191 -226 -227 -179 -80 -53 -23 -18 -1 -0 -0 -0 -0 -0 -0 -0 -0 -0 -0 -0 -0 -0 -24 -31 -27 -0
-0 -0 -0 -1 -0 -4 -7 -0 -24 -7 -27 -24 -25 -18 -28 -0 -0 -0 -0 -0 -0 -0 -0 -0 -0 -30 -63 -62 -66 -131 -0 -115 -0 -46 -41 -23 -21 -31 -0 -0 -0 -0 -0 -0 -0 -0 -0 -0 -0 -0 -51 -55 -36 -33
-0 -0 -0 -1 -2 -10 -8 -21 -10 -41 -0 -0 -0 -0 -0 -0 -0 -0 -0 -0 -0 -0 -0 -0 -0 -72 -61 -64 -39 -60 -57 -71 -0 -0 -0 -0 -0 -0 -0 -0 -0 -0 -0 -0 -0 -0 -0 -0 -0 -0 -36 -25 -29 -21
-0 -0 -0 -0 -0 -0 -0 -0 -0 -0 -0 -0 -0 -0 -0 -2 -0 -0 -0 -0 -0 -0 -0 -0 -0 -4 -4 -47 -4 -0 -2 -2 -0 -0 -0 -0 -65 -48 -0 -0 -0 -15 -52 -50 -61 -67 -55 -31 -28 -40 -39 -48 -44 -36
-0 -0 -0 -0 -0 -0 -0 -0 -0 -0 -0 -1 -0 -8 -9 -0 -0 -0 -0 -0 -0 -0 -0 -0 -0 -0 -20 -78 -0 -105 -113 -116 -0 -0 -0 -0 -13 -0 -0 -87 -45 -46 -54 -46 -0 -44 -28 -26 -22 -0 -0 -0 -0 -0
Wind_Speed
29 30 30 30 31 32 32 32 32 31 30 29 28 27 26 25 24 21 18 19 18 20 24 20 19 18 18 18 18 19 20 22 21 21 19 19 20 19 20 19 19 17 17 18 19 21 24 16 15 20 19 16 15 17
28 29 29 31 32 32 32 33 33 32 32 31 30 28 27 26 25 23 19 20 20 17 21 20 23 23 21 18 18 20 21 20 18 18 18 18 20 19 19 21 17 19 17 18 18 20 18 17 17 16 17 17 19 21
27 27 29 30 31 32 33 33 33 33 33 32 31 29 27 26 25 24 21 22 19 20 21 21 19 19 17 15 16 20 19 17 17 16 15 17 20 17 21 20 18 17 15 18 17 17 16 16 16 17 19 21 23 26
27 27 28 30 31 32 32 33 33 33 33 32 32 30 28 27 26 25 21 19 18 17 19 17 18 15 18 14 13 16 15 14 14 15 17 18 19 16 19 19 18 17 16 16 19 17 17 17 17 19 22 25 29 31
27 27 28 30 31 32 32 34 34 34 34 33 32 29 28 27 27 25 16 17 18 17 18 18 22 15 15 12 11 13 14 15 15 16 17 18 16 16 17 17 18 15 15 17 19 11 16 16 16 20 23 29 30 31
26 28 29 30 31 32 33 33 34 34 34 33 31 29 28 27 26 18 18 15 15 17 18 19 19 17 15 11 12 15 17 16 15 14 14 14 14 15 15 16 15 14 14 14 16 11 14 17 18 22 26 29 31 33
26 28 29 30 31 31 32 33 33 33 33 32 31 29 27 25 21 17 17 16 15 20 18 20 19 17 15 13 15 17 17 16 15 14 14 13 13 13 14 14 11 11 12 14 14 15 18 20 23 27 29 31 33 34
25 27 28 29 29 29 31 32 32 32 32 31 30 29 26 24 20 19 17 18 11 16 16 18 19 17 14 13 14 17 15 16 17 14 14 14 13 15 15 13 9 9 11 13 17 19 20 22 26 29 32 34 35 36
25 26 27 27 27 29 30 31 31 32 31 29 28 22 15 15 16 17 14 12 15 15 16 17 16 16 14 11 14 14 15 16 17 15 14 13 13 13 14 10 6 8 12 14 17 20 23 26 28 31 32 33 32 34
25 25 26 27 27 28 29 30 30 30 28 25 16 13 13 16 19 17 17 16 16 16 15 18 16 16 12 10 13 14 16 15 16 14 12 13 14 15 13 8 8 10 13 15 20 25 27 28 29 30 30 31 32 34
25 25 26 27 27 27 27 28 27 27 19 15 14 12 17 19 15 16 16 14 14 16 13 14 9 13 12 11 11 14 14 14 16 13 12 14 15 11 8 9 10 12 15 19 21 21 24 24 25 26 28 31 33 34
24 25 26 27 27 27 26 26 24 19 16 17 18 18 16 15 16 15 15 15 13 14 11 10 7 5 12 12 12 13 14 14 15 13 15 16 14 6 6 8 10 12 16 19 21 22 22 23 24 26 29 32 33 34
25 26 27 28 28 27 27 25 23 21 20 14 14 13 13 13 13 13 11 13 14 12 10 9 9 7 10 11 12 12 13 15 14 16 17 15 10 6 7 9 11 13 16 19 20 21 20 21 24 27 29 30 32 34
26 28 28 28 28 28 27 26 23 18 14 13 13 12 10 11 12 9 10 12 14 13 11 11 7 8 9 10 12 14 16 16 18 17 15 13 6 6 7 9 11 13 16 18 19 18 19 21 23 25 28 31 33 34
25 26 27 26 26 24 23 19 13 14 14 14 14 14 13 15 15 14 17 17 17 16 13 6 10 9 10 11 13 13 15 16 15 16 15 9 7 7 8 9 12 13 15 16 16 16 18 19 22 25 28 31 33 34
24 24 20 23 20 19 16 14 14 15 16 15 16 16 16 17 17 15 14 16 15 15 8 9 11 11 13 12 12 13 13 15 15 14 12 8 7 7 9 10 12 13 13 14 14 15 16 18 20 23 26 30 33 34
23 20 21 21 20 19 17 17 16 17 17 18 19 19 20 21 19 16 16 16 18 12 8 9 10 12 11 13 13 11 12 13 12 11 8 6 6 7 10 11 12 13 14 13 12 13 14 16 20 22 26 28 30 32
22 21 22 21 20 18 17 17 18 19 21 21 21 20 19 19 21 21 19 19 19 15 12 11 11 14 15 14 15 14 11 11 11 9 7 6 7 8 9 11 11 11 13 13 12 12 13 15 18 22 23 24 26 29
24 24 23 21 19 19 18 18 18 21 22 22 23 23 22 22 22 24 24 23 19 18 15 15 15 13 16 18 17 12 9 8 7 8 7 6 7 8 8 10 10 11 12 13 12 12 13 15 17 20 21 22 23 24
23 23 23 22 17 18 18 19 17 21 22 21 22 23 22 22 22 23 23 20 17 17 17 18 18 18 17 16 13 11 10 8 6 6 7 7 7 7 6 8 8 9 11 12 12 11 12 14 16 17 19 19 20 22
18 18 18 15 17 17 19 19 19 19 21 22 22 22 22 21 22 21 21 19 20 20 21 18 18 17 14 14 13 10 9 9 8 6 5 6 6 6 6 6 7 7 8 10 10 11 12 14 19 19 17 19 20 20
16 16 15 15 17 18 20 19 19 21 20 21 22 20 22 22 23 22 20 21 22 23 21 20 21 20 20 19 17 14 15 12 14 13 13 10 6 4 4 4 5 5 6 7 8 9 10 13 16 18 17 18 19 20
16 14 15 15 17 18 20 18 20 20 21 20 21 21 21 21 21 19 22 22 23 24 27 27 26 24 23 23 21 20 18 16 15 14 14 8 7 4 6 4 3 5 6 8 8 9 9 11 12 14 16 16 18 19
13 14 15 17 16 18 17 19 18 19 20 21 22 23 22 22 21 23 26 25 25 25 25 26 24 25 25 23 22 20 17 15 15 17 12 7 4 5 5 3 4 6 8 8 8 9 8 9 11 12 12 14 18 15
14 15 16 16 16 17 18 18 18 18 20 18 20 20 19 18 21 23 24 23 24 24 26 25 22 20 21 22 21 21 19 16 16 13 9 4 4 8 7 5 4 6 7 7 8 7 6 7 8 8 9 10 14 14
16 16 15 16 16 16 16 17 16 16 17 17 18 18 17 18 20 20 19 18 20 22 23 21 20 20 19 17 20 22 22 17 15 13 11 4 3 2 1 2 6 4 7 7 6 7 7 7 7 7 6 8 9 11
16 16 16 16 16 16 17 17 18 17 17 16 17 17 18 19 20 18 16 17 20 21 22 22 21 19 17 20 21 21 16 11 10 11 5 3 2 1 4 8 7 6 6 5 7 6 7 7 8 8 7 8 9 9
17 16 14 14 15 16 16 17 16 16 16 15 16 17 18 18 19 15 15 20 23 24 23 23 21 17 15 18 20 17 12 8 9 9 5 8 7 3 2 1 4 6 9 7 8 9 10 10 11 13 13 12 10 9
16 15 13 15 15 15 14 14 15 15 15 14 18 19 19 20 21 23 26 28 28 26 26 24 18 14 12 15 16 14 11 4 5 6 6 6 4 3 6 3 2 4 6 8 10 11 11 12 13 14 13 12 12 13
17 18 15 16 14 15 16 12 18 20 20 20 21 23 25 27 28 27 28 29 28 27 25 23 19 18 15 15 17 15 13 11 13 4 6 5 10 1 2 2 2 6 7 8 10 12 13 13 14 14 13 12 12 14
16 16 18 19 19 19 23 25 26 28 28 27 8 14 26 32 31 29 27 28 29 25 23 22 24 23 21 18 17 18 14 17 19 11 10 22 6 1 4 5 7 7 9 12 13 12 12 13 13 13 13 13 12 13
18 21 19 20 22 22 21 21 20 19 19 18 19 19 20 20 23 22 22 25 28 28 28 26 24 22 20 19 19 19 19 17 14 17 21 6 5 7 1 6 8 9 11 12 13 13 12 12 12 11 10 8 9 11
19 19 19 17 17 17 17 16 15 14 14 15 15 16 16 19 19 17 16 22 25 27 27 25 25 24 23 24 25 24 22 18 9 2 6 8 9 10 7 3 6 13 12 14 14 12 11 11 11 13 14 12 12 12
Wind_Direction
305 306 309 311 312 313 316 319 321 321 318 315 313 312 309 308 311 312 306 313 305 284 271 284 286 291 295 297 295 301 302 304 308 308 311 312 311 313 312 315 314 312 308 305 309 308 307 327 330 318 326 334 331 325
306 306 308 310 311 312 315 317 319 319 320 320 317 314 310 309 309 311 311 313 313 305 291 294 283 285 294 302 303 301 301 307 312 312 311 315 311 314 315 309 324 312 315 313 313 313 325 324 327 336 334 331 327 325
304 308 309 310 309 310 313 316 317 318 317 317 315 315 314 309 307 310 308 306 313 306 297 295 294 296 302 301 308 304 307 314 314 320 319 317 310 320 309 310 317 324 330 320 320 324 329 333 337 336 332 329 325 322
300 305 309 310 310 310 313 314 315 315 315 313 311 307 306 305 304 306 308 311 316 313 303 305 310 306 300 314 316 318 321 326 327 322 315 314 311 320 314 316 314 319 324 322 321 323 326 327 331 333 331 327 323 321
299 302 307 305 307 308 309 311 312 312 311 309 306 304 302 302 301 304 319 314 310 307 304 299 289 312 307 329 338 336 335 326 320 315 314 311 320 322 321 322 316 324 326 324 324 336 333 335 335 334 331 326 327 326
298 298 302 301 303 304 305 308 309 311 308 304 301 302 300 299 303 316 311 314 322 312 303 298 300 304 307 324 330 330 331 329 324 323 323 328 331 327 326 322 327 333 343 348 343 358 348 345 345 340 334 334 332 330
295 296 298 298 301 303 306 307 311 308 302 298 296 294 292 296 304 305 308 318 312 310 303 297 299 302 302 309 313 322 329 332 329 325 320 327 332 335 332 327 341 354 356 356 1 359 346 344 339 339 338 335 334 332
294 295 295 298 300 303 305 307 306 300 295 292 288 285 287 291 299 299 312 308 324 310 308 302 300 302 305 306 310 316 326 330 326 328 326 324 328 326 327 329 350 3 7 1 353 352 350 346 342 339 339 337 336 336
292 294 293 295 298 303 303 304 300 295 291 286 283 297 312 306 304 306 325 338 318 312 308 303 298 300 309 313 313 313 323 326 327 330 325 332 328 328 330 349 26 24 2 360 357 352 348 347 344 342 343 345 346 344
289 291 290 292 296 300 301 300 296 292 288 293 324 331 320 296 291 309 315 316 315 307 306 297 296 297 314 309 307 314 320 327 325 330 339 328 326 322 334 22 29 20 8 3 349 344 347 346 346 349 352 352 350 349
285 286 286 288 292 295 298 297 296 296 319 328 327 335 293 287 304 307 315 322 323 314 320 307 304 304 311 306 306 312 324 330 323 328 331 329 324 340 14 25 18 15 9 1 359 359 357 358 358 357 355 351 353 354
281 282 283 284 286 288 292 294 299 313 320 304 292 296 298 302 302 308 316 319 325 316 340 343 334 315 307 310 312 316 321 328 320 328 320 320 333 13 39 33 31 19 7 0 1 360 1 3 5 359 351 350 354 354
281 279 279 280 280 280 282 283 287 290 290 307 307 313 316 312 310 315 323 322 312 320 332 340 331 309 314 319 322 325 320 310 321 313 316 327 354 44 45 36 21 16 8 5 4 7 10 12 7 359 355 358 359 356
283 276 277 276 277 275 274 273 277 288 302 306 305 309 320 327 319 332 329 317 307 315 338 332 332 311 317 317 318 314 304 308 304 313 325 344 48 69 48 31 21 12 4 7 9 16 18 14 9 5 3 2 359 359
283 281 276 274 277 279 278 280 287 289 292 299 301 303 302 299 304 314 303 298 303 307 316 333 324 316 309 315 310 314 312 309 319 325 335 7 78 65 36 27 16 14 16 15 24 26 22 19 9 4 3 3 4 6
287 280 276 280 282 283 282 281 282 282 286 292 292 294 297 293 290 300 308 303 314 311 326 307 307 306 300 312 311 309 318 318 327 338 353 53 66 53 34 26 23 22 24 28 33 32 30 23 13 9 6 2 3 8
279 274 280 283 283 278 274 274 277 279 282 286 284 282 283 286 285 292 300 301 300 308 312 309 310 297 317 304 304 323 320 333 345 353 19 56 63 53 28 27 25 30 34 33 38 38 34 22 12 8 3 4 7 12
272 274 278 279 276 273 273 276 276 278 278 277 279 283 283 284 281 282 289 290 289 293 301 302 308 295 295 301 307 315 330 339 344 2 40 58 45 35 36 29 30 40 37 37 41 41 32 18 14 11 13 16 15 15
269 270 274 272 273 270 272 276 279 278 277 280 280 281 285 284 281 277 281 284 288 288 294 294 300 298 294 298 306 318 329 337 356 4 25 24 29 32 34 35 39 45 43 43 46 47 39 20 13 14 18 20 24 27
273 269 268 269 275 272 274 278 283 278 279 283 284 283 283 282 284 280 280 286 287 286 285 286 288 295 301 305 313 313 320 335 347 358 1 359 3 11 34 35 48 56 46 40 45 49 43 31 27 26 24 33 35 31
281 273 271 275 273 275 277 280 280 283 284 282 286 287 285 286 283 281 280 284 282 279 280 288 292 297 306 315 321 322 327 331 326 332 346 351 357 10 16 25 40 57 52 49 58 52 49 39 20 25 40 42 41 40
281 275 276 275 274 278 277 280 282 287 286 287 289 290 286 285 283 282 284 279 279 279 282 284 285 287 290 295 303 304 307 319 323 320 318 329 343 9 8 20 52 80 81 79 81 76 63 46 39 36 46 45 46 43
282 272 274 279 276 274 279 287 281 284 284 288 290 289 289 290 289 292 286 285 287 283 278 277 279 283 286 290 293 294 300 305 305 303 302 299 310 324 342 10 81 105 98 111 106 108 118 60 52 46 50 53 45 47
279 275 274 275 275 277 285 281 285 286 288 286 288 286 289 289 292 289 284 289 291 289 284 281 283 280 280 282 285 291 296 303 304 304 301 292 282 304 333 9 115 128 121 103 98 115 104 66 61 58 62 57 46 54
273 273 278 276 279 278 278 282 284 284 285 288 291 291 293 295 291 291 288 291 296 292 286 289 292 290 284 282 275 279 286 293 300 298 306 289 295 314 331 349 91 109 112 98 96 86 70 64 71 62 61 59 50 52
268 275 277 275 277 279 280 282 285 287 292 291 290 294 300 295 292 293 297 297 300 303 304 306 299 296 294 283 282 278 275 278 290 291 293 251 260 300 333 112 120 100 119 115 43 52 86 82 57 49 69 66 68 60
272 278 277 278 282 281 281 282 286 290 291 291 296 296 298 295 295 301 307 310 310 313 315 309 303 299 295 291 293 286 278 275 279 279 279 205 254 257 117 126 123 112 348 92 125 110 62 63 64 77 82 86 77 66
274 278 275 281 278 278 278 284 289 292 295 298 303 299 300 302 304 311 314 316 311 310 310 308 306 299 296 293 293 292 283 278 282 284 298 281 284 295 98 356 10 346 335 26 67 44 28 40 50 48 69 82 83 77
268 265 276 274 274 280 284 289 292 299 304 312 304 302 306 310 306 298 299 299 300 301 294 292 302 305 305 301 300 292 284 261 241 257 252 246 267 283 283 304 33 33 38 30 21 45 66 59 48 58 71 71 70 62
245 242 266 272 276 276 280 296 287 287 302 308 305 303 303 304 301 299 294 292 292 288 283 278 279 282 289 293 280 263 263 270 275 223 214 174 137 91 68 102 52 57 47 14 36 39 46 37 44 56 54 60 70 60
238 247 249 250 258 258 248 253 253 254 270 262 248 215 238 282 285 257 237 243 250 262 256 253 247 246 245 252 246 235 253 252 234 274 253 238 272 164 114 102 94 74 68 82 99 85 67 66 59 54 62 73 80 65
228 212 236 240 237 240 247 238 234 226 224 219 221 216 224 224 239 239 231 208 199 199 197 208 229 238 243 239 237 242 241 243 260 137 143 111 103 107 99 98 99 89 92 103 117 122 103 74 61 60 69 79 93 85
192 196 199 207 206 206 213 224 196 188 194 210 212 216 213 188 185 204 222 198 188 170 176 185 182 194 202 209 214 210 215 236 276 319 99 106 102 100 95 76 79 107 105 115 113 101 69 74 71 53 54 71 96 106